Theta_e
311 312 313 314 316 316 317 316 318 320 321 321 324 326 328 329 331 333 332 332 334 335
310 311 314 316 315 317 316 318 319 320 318 319 319 320 321 323 325 328 328 330 332 333
311 314 314 311 313 314 316 316 318 316 316 316 317 317 316 318 322 324 326 327 326 328
308 309 311 311 314 315 313 314 315 314 315 315 314 313 314 316 320 322 323 325 325 325
303 304 305 308 312 315 312 313 313 313 313 314 314 312 312 312 316 316 317 320 323 325
300 301 302 304 306 309 312 313 313 312 313 313 313 312 312 314 315 314 315 316 319 323
299 299 300 301 303 307 309 310 312 313 313 312 313 314 314 315 315 316 317 317 318 321
301 301 301 301 301 302 304 307 309 312 313 313 313 315 317 314 314 313 314 317 319 321
299 300 300 300 300 300 301 303 306 309 312 312 314 308 305 306 310 313 312 315 319 321
296 296 297 298 298 299 300 301 304 308 309 309 310 304 303 304 310 314 314 318 319 320
295 295 296 297 298 299 298 299 301 305 307 308 310 304 301 303 312 313 315 318 319 320
294 294 296 295 296 297 299 301 302 304 304 306 309 303 300 302 313 314 314 319 317 315
294 294 294 294 294 296 298 298 299 300 302 305 308 302 300 301 313 313 313 316 317 308
294 294 294 294 295 295 298 297 298 301 303 305 307 308 300 299 312 313 312 315 314 312
Wind_Speed
8 5 5 6 5 5 5 4 5 6 5 6 6 5 6 7 8 8 8 12 12 9
6 7 7 8 5 5 5 4 6 6 6 6 6 6 6 5 8 9 9 10 12 12
8 6 5 5 8 7 6 6 6 6 6 7 7 6 6 6 7 8 8 8 10 11
9 8 6 6 8 6 6 7 7 7 7 7 8 7 6 8 10 10 11 10 11 15
6 6 6 6 7 7 8 8 8 7 7 7 7 7 7 10 10 11 12 14 14 17
6 6 6 7 7 7 8 10 9 8 10 9 8 7 8 12 11 13 13 15 16 18
7 7 7 7 8 8 11 10 11 12 13 10 9 8 9 11 11 13 14 18 19 19
13 13 13 13 12 11 12 13 14 13 12 12 9 7 10 10 9 11 14 17 19 19
16 16 16 15 13 12 14 15 16 15 11 11 8 11 16 11 9 11 12 17 16 17
15 16 16 16 16 16 13 12 16 15 10 9 10 13 15 15 10 9 13 16 8 10
15 16 16 15 13 13 13 15 15 12 11 11 8 12 14 18 9 6 12 6 5 10
14 15 15 15 13 10 13 12 10 9 8 8 10 12 17 12 5 5 8 6 3 8
14 15 15 14 15 13 12 12 11 11 10 11 12 12 14 10 4 6 9 10 7 9
14 14 13 14 14 13 11 11 11 12 10 8 11 11 14 9 5 6 5 6 2 3
Wind_Direction
222 214 210 212 187 196 198 201 225 250 265 274 267 265 274 281 276 265 258 243 241 236
237 225 222 213 202 200 197 208 219 229 253 266 276 272 268 266 275 275 271 260 239 222
313 289 244 207 215 208 213 211 217 235 235 256 252 261 268 263 263 266 269 263 230 222
354 344 329 299 291 240 211 220 217 222 230 236 249 239 246 256 266 265 266 258 240 238
338 337 340 333 317 302 279 279 237 227 234 241 242 249 246 262 264 262 266 262 252 244
301 300 293 290 290 289 288 278 270 258 251 244 242 245 250 258 268 271 270 269 261 253
285 274 267 266 271 268 275 272 269 264 258 252 249 243 251 254 260 268 270 268 260 251
289 284 282 279 272 266 265 265 263 261 261 255 251 249 242 250 256 261 276 270 262 252
290 287 283 279 273 273 270 266 262 254 241 251 254 244 240 248 274 265 281 284 250 237
295 290 288 285 282 278 271 268 265 252 231 229 246 244 257 258 265 287 303 279 204 211
288 286 285 276 282 285 282 274 269 269 257 245 238 242 260 260 266 291 308 302 196 194
296 295 292 290 285 288 279 282 276 274 268 273 256 237 250 257 268 300 294 356 51 107
291 292 289 287 282 276 273 275 281 275 267 266 264 243 245 253 236 300 301 337 25 39
289 286 288 285 278 273 272 266 268 268 260 257 262 246 233 248 236 218 275 310 309 185